Preview of NWS' New Version of Forecast
This preview is not operational and should not be used for support decisions.

Regional Weather Roundup (RWR)

Issued by National Weather Service (NWS)

                            
000
ASCA42 TJSJ 212210
RWRPR 
PUERTO RICO/U.S. VIRGIN ISLANDS HOURLY WEATHER ROUNDUP
NATIONAL WEATHER SERVICE SAN JUAN PR
600 PM AST SUN JUL 21 2019

PRZ001>002-007>008-010-212300-
PUERTO RICO
  
CITY           SKY/WX    TMP DP  RH WIND       PRES   REMARKS
SAN JUAN LMM   MOSUNNY   84  75  74 E15       29.99R HX  92           
AGUADILLA      PTSUNNY   82  73  74 E9        30.00S                  
CEIBA          MOSUNNY   84  73  70 E10       30.00S HX  91           
$$

VIZ001>002-212300-
U.S. VIRGIN ISLANDS
  
CITY           SKY/WX    TMP DP  RH WIND       PRES   REMARKS
CHARLOTTE AMA  MOSUNNY   82  73  74 E12       29.98R                  
CHRISTIANSTED  MOSUNNY   84  70  61 E15       29.99R                  
$$

HOURLY WEATHER ROUNDUP FOR THE NEWS MEDIA
  
CITY           SKY/WX    TMP DP  RH WIND       PRES   REMARKS
ORLANDO        FAIR      76  70  82 SW6       30.05S                  
NEW YORK       FAIR      98  74  45 W17       29.76S HX 109           
NEWARK         PTSUNNY   98  72  42 W15       29.76R HX 107           
CHICAGO        PTSUNNY   76  56  49 N21       29.95F                  
HARTFORD       FAIR      92  75  57 SW9       29.71R HX 103           
BOSTON         FAIR      96  66  37 W15G25    29.70S HX  99           
DALLAS         CLOUDY    97  63  32 SE9       29.89F HX  98           
PHILADELPHIA   FAIR      98  72  42 W12       29.80R HX 107           
LOS ANGELES    MOSUNNY   71  60  68 W18       29.92F                  
WASHINGTON DC  PTSUNNY   97  73  45 SW13      29.84F HX 107